Location: Hains Lake
(37.8540°N, 99.8578°W)
Time: 22:57:52
(UTC+00:00)

Vanguard 2 Rocket - Pass Details

Date: 24 April 2021
Orbit: 553 x 3326 km, 32.9° (Epoch: 06 May)

Event Time Altitude Azimuth Distance (km) Brightness Sun altitude
Rises 00:33:09 0° 283° (WNW) 7,276 14.0 8.7°
Reaches altitude 10° 00:38:18 10° 278° (W) 6,288 14.8 7.7°
Maximum altitude 00:56:47 48° 213° (SSW) 3,498 10.1 4.2°
Drops below altitude 10° 01:10:06 10° 144° (SE) 4,628 10.1 1.6°
Sets 01:13:16 0° 138° (SE) 5,299 10.3 1.0°
